Wind_Speed
17 15 15 13 18 19 22 18 19 19 21 20 22 31 38 39 41 43 39 38 38 33
17 15 13 13 16 18 19 20 18 19 18 19 25 26 34 37 42 43 42 42 43 40
17 14 13 13 15 14 16 18 17 18 18 18 15 28 34 40 44 42 36 35 33 30
12 11 13 12 13 14 18 17 19 19 15 18 20 22 30 37 39 35 35 31 32 33
11 10 12 12 13 13 17 16 17 16 16 16 18 23 25 29 28 33 35 33 29 25
10 12 14 14 16 14 16 16 16 16 18 18 20 21 23 28 28 29 31 31 28 26
9 10 11 12 15 14 17 17 18 18 17 21 21 20 27 30 30 27 27 29 26 24
10 10 10 9 10 15 17 16 17 17 24 21 21 22 30 31 26 28 27 21 23 19
9 10 11 11 11 12 15 16 14 19 20 18 22 26 31 33 29 27 24 27 22 21
9 10 6 10 12 9 12 14 15 17 19 21 24 24 23 22 25 25 27 26 27 24
7 6 8 6 5 7 9 12 13 17 19 24 26 26 23 25 27 29 28 23 21 21
4 3 1 1 3 7 9 15 18 21 24 25 26 27 27 29 28 27 26 26 22 18
4 5 4 6 12 18 12 18 22 26 24 21 25 27 29 28 27 29 27 22 19 16
4 11 10 12 16 15 16 20 24 25 23 22 26 27 25 21 26 24 26 23 19 15
Wind_Direction
278 276 266 269 248 242 240 248 242 230 236 236 238 220 218 222 208 215 213 213 220 214
265 273 267 262 251 241 238 244 242 241 243 241 235 240 216 223 222 217 208 214 220 223
253 262 266 259 247 246 231 234 238 247 241 235 239 233 225 227 219 218 216 215 208 216
262 255 266 249 248 238 231 233 237 240 242 235 232 226 231 229 221 210 208 214 217 218
285 259 260 263 248 239 239 240 240 230 236 242 236 233 234 220 215 211 209 213 211 209
288 282 271 260 258 248 240 234 229 231 233 228 229 230 234 222 216 208 211 212 218 218
281 292 277 263 256 246 247 243 245 228 238 229 230 230 222 209 204 204 203 207 214 218
283 286 288 272 278 262 243 247 227 235 233 224 226 225 213 208 199 206 183 199 199 195
294 293 289 270 269 266 243 234 240 227 230 225 229 214 212 202 186 187 199 185 169 166
291 301 252 292 270 248 243 235 224 224 220 210 195 179 177 188 186 180 167 168 166 171
310 294 239 294 246 243 230 220 217 213 180 177 173 169 174 173 172 170 170 165 162 175
323 288 167 236 176 183 177 156 148 152 155 161 162 170 171 167 166 155 155 169 164 147
292 214 148 150 130 141 155 165 170 166 171 183 171 166 164 165 157 158 156 138 141 150
264 190 182 169 167 169 160 160 160 160 163 166 163 157 154 157 161 162 144 146 149 151
Height
1464 1464 1464 1464 1465 1467 1469 1472 1474 1476 1478 1481 1483 1486 1491 1496 1499 1505 1510 1515 1520 1524
1460 1459 1459 1460 1461 1463 1465 1467 1469 1472 1474 1476 1479 1483 1487 1491 1495 1500 1504 1510 1516 1521
1454 1455 1455 1456 1457 1458 1461 1463 1465 1467 1469 1472 1474 1478 1480 1486 1488 1494 1500 1505 1511 1516
1450 1451 1453 1453 1453 1454 1456 1458 1460 1463 1465 1466 1470 1474 1477 1479 1484 1490 1496 1501 1507 1512
1447 1448 1449 1448 1449 1450 1452 1454 1456 1458 1461 1463 1466 1470 1473 1477 1482 1486 1492 1498 1502 1506
1445 1444 1444 1444 1445 1446 1447 1450 1452 1455 1457 1459 1463 1466 1469 1474 1478 1483 1488 1494 1499 1503
1442 1441 1441 1440 1441 1441 1444 1445 1448 1450 1453 1454 1458 1462 1465 1470 1474 1480 1485 1490 1495 1500
1439 1438 1438 1437 1437 1438 1439 1441 1442 1446 1448 1452 1455 1457 1462 1466 1469 1476 1482 1488 1493 1498
1435 1436 1435 1434 1434 1435 1435 1436 1440 1441 1445 1448 1451 1455 1459 1463 1468 1476 1480 1486 1491 1496
1432 1433 1431 1431 1431 1432 1432 1434 1436 1439 1442 1446 1450 1455 1460 1464 1469 1474 1480 1485 1492 1496
1430 1430 1429 1429 1429 1430 1431 1432 1435 1438 1441 1446 1451 1456 1460 1465 1468 1473 1479 1485 1491 1497
1429 1429 1429 1429 1428 1430 1431 1434 1437 1441 1444 1448 1452 1457 1460 1465 1469 1475 1482 1488 1493 1497
1428 1430 1430 1431 1431 1433 1436 1438 1440 1443 1447 1450 1454 1459 1463 1467 1472 1478 1483 1488 1495 1500
1428 1429 1431 1432 1434 1435 1437 1440 1443 1446 1450 1453 1456 1462 1467 1472 1475 1480 1485 1492 1496 1500